Weather History for Oxnard, CA

Change the Weather History Date:

Tuesday, November 5, 2013

  Actual Average Record
Temperature  
Mean Temperature 60 °F -  
Max Temperature 75 °F 71 °F 98 °F (1976)
Min Temperature 46 °F 50 °F 40 °F (1956)
Degree Days  
Heating Degree Days 4    
Growing Degree Days 10 (Base 50)    
Moisture  
Dew Point 35 °F    
Average Humidity 46    
Maximum Humidity 77    
Minimum Humidity 11    
Precipitation  
Precipitation 0.00 in - - ()
Sea Level Pressure  
Sea Level Pressure 30.07 in    
Wind  
Wind Speed 8 mph (NNE)    
Max Wind Speed 20 mph    
Max Gust Speed 30 mph    
Visibility 10 miles    
Events      
Averages and records for this station are not official NWS values.
T = Trace of Precipitation, MM = Missing Value Source: NWS Daily Summary

Daily Weather History Graph

Daily Weather History Graph

Search for Another Location

Airport:

Trip Planner

Search our weather history database for the weather conditions in past years. The results will help you decide how hot, cold, wet, or windy it might be!

Date:

Astronomy

Nov. 05, 2013 Rise Set
Actual Time 6:20 AM PST 4:59 PM PST
Civil Twilight 5:54 AM PST 5:25 PM PST
Nautical Twilight 5:24 AM PST 5:55 PM PST
Astronomical Twilight 4:55 AM PST 6:25 PM PST
Moon 8:36 AM PST (11/5) 7:09 PM PST (11/5)
Length of Visible Light 11h 31m
Length of Day
10h 39m
Waxing Crescent, 7% of the Moon is Illuminated
Nov 5
Waxing Crescent
Nov 9
First Quarter
Nov 17
Full
Nov 25
Last Quarter
Dec 2
New

Hourly Weather History & Observations

Time (PST) Temp. Dew Point Humidity Pressure Visibility Wind Dir Wind Speed Gust Speed Precip Events Conditions
12:51 AM 52.0 °F 44.1 °F 74% 29.96 in 10.0 mi ENE 3.5 mph - N/A   Clear
1:51 AM 48.9 °F 42.1 °F 77% 29.96 in 10.0 mi ENE 5.8 mph - N/A   Clear
2:51 AM 48.9 °F 39.9 °F 71% 29.99 in 10.0 mi NW 8.1 mph - N/A   Clear
3:51 AM 48.9 °F 37.0 °F 64% 30.00 in 10.0 mi NNE 5.8 mph - N/A   Clear
4:51 AM 48.9 °F 35.1 °F 59% 30.01 in 10.0 mi ENE 4.6 mph - N/A   Clear
5:51 AM 46.9 °F 35.1 °F 63% 30.03 in 10.0 mi NE 3.5 mph - N/A   Clear
6:51 AM 55.0 °F 28.0 °F 35% 30.06 in - ENE 9.2 mph - N/A   Clear
7:51 AM 64.0 °F 21.0 °F 19% 30.08 in 10.0 mi East 16.1 mph 23.0 mph N/A   Clear
8:51 AM 66.9 °F 19.9 °F 17% 30.09 in 10.0 mi East 19.6 mph 29.9 mph N/A   Clear
9:51 AM 70.0 °F 19.0 °F 14% 30.10 in 10.0 mi ENE 19.6 mph 26.5 mph N/A   Clear
10:51 AM 72.0 °F 19.9 °F 14% 30.10 in 10.0 mi East 16.1 mph 23.0 mph N/A   Clear
11:51 AM 73.0 °F 18.0 °F 12% 30.09 in 10.0 mi East 17.3 mph - N/A   Clear
12:51 PM 75.0 °F 16.0 °F 11% 30.07 in 10.0 mi East 15.0 mph - N/A   Clear
1:51 PM 70.0 °F 46.0 °F 42% 30.06 in 10.0 mi NW 11.5 mph - N/A   Clear
2:51 PM 68.0 °F 46.9 °F 47% 30.06 in 10.0 mi WNW 13.8 mph - N/A   Clear
3:51 PM 66.9 °F 41.0 °F 39% 30.08 in 10.0 mi WNW 8.1 mph - N/A   Clear
4:51 PM 64.9 °F 37.0 °F 36% 30.09 in 10.0 mi NW 9.2 mph - N/A   Clear
5:51 PM 61.0 °F 46.9 °F 60% 30.11 in 10.0 mi WNW 5.8 mph - N/A   Clear
6:51 PM 60.1 °F 44.1 °F 55% 30.12 in 10.0 mi Calm Calm - N/A   Clear
7:51 PM 57.9 °F 48.9 °F 72% 30.13 in 10.0 mi Calm Calm - N/A   Clear
8:51 PM 54.0 °F 45.0 °F 72% 30.14 in 10.0 mi North 5.8 mph - N/A   Clear
9:51 PM 54.0 °F 35.1 °F 49% 30.15 in 10.0 mi North 3.5 mph - N/A   Clear
10:51 PM 48.0 °F 36.0 °F 63% 30.16 in 10.0 mi NNW 4.6 mph - N/A   Clear
11:51 PM 48.9 °F 28.9 °F 46% 30.15 in 10.0 mi NNE 5.8 mph - N/A   Clear